Change the Weather History Date:

Saturday, October 6, 2012

  Actual Average Record
Temperature  
Mean Temperature 55 °F -  
Max Temperature 64 °F 78 °F 94 °F (1938)
Min Temperature 44 °F 47 °F 34 °F (1980)
Degree Days  
Heating Degree Days 10    
Growing Degree Days 5 (Base 50)    
Moisture  
Dew Point 44 °F    
Average Humidity 77    
Maximum Humidity 94    
Minimum Humidity 42    
Precipitation  
Precipitation 0.21 in - - ()
Sea Level Pressure  
Sea Level Pressure 30.13 in    
Wind  
Wind Speed 11 mph (North)    
Max Wind Speed 17 mph    
Max Gust Speed 24 mph    
Visibility 9 miles    
Events Rain , Thunderstorm    
Averages and records for this station are not official NWS values.
T = Trace of Precipitation, MM = Missing Value Source: NWS Daily Summary

Daily Weather History Graph

Daily Weather History Graph

Search for Another Location

Airport or City:

Trip Planner

Search our weather history database for the weather conditions in past years. The results will help you decide how hot, cold, wet, or windy it might be!

Date:

Astronomy

Oct. 06, 2012 Rise Set
Actual Time 6:53 AM CDT 6:30 PM CDT
Civil Twilight 6:28 AM CDT 6:56 PM CDT
Nautical Twilight 5:58 AM CDT 7:25 PM CDT
Astronomical Twilight 5:29 AM CDT 7:54 PM CDT
Moon 10:56 PM CDT (10/6) 12:37 PM CDT (10/6)
Length of Visible Light 12h 27m
Length of Day
11h 37m
Waning Gibbous, 65% of the Moon is Illuminated
Oct 6
Waning Gibbous
Oct 8
Last Quarter
Oct 15
New
Oct 21
First Quarter
Oct 29
Full

Hourly Weather History & Observations

Time (CDT) Temp. Windchill Dew Point Humidity Pressure Visibility Wind Dir Wind Speed Gust Speed Precip Events Conditions
12:05 AM 64.4 °F - 62.6 °F 94% 30.03 in 3.0 mi NW 17.3 mph - N/A   Overcast
12:25 AM 59.0 °F - 57.2 °F 94% 30.05 in 6.0 mi WNW 15.0 mph 24.2 mph N/A   Overcast
12:45 AM 55.4 °F - 53.6 °F 94% 30.06 in 7.0 mi NW 11.5 mph 23.0 mph N/A Thunderstorm Overcast
1:05 AM 53.6 °F - 51.8 °F 94% 30.07 in 5.0 mi NNW 11.5 mph 20.7 mph N/A   Overcast
1:25 AM 51.8 °F - 50.0 °F 94% 30.09 in 3.0 mi NNW 15.0 mph 23.0 mph N/A   Overcast
1:45 AM 50.0 °F - 48.2 °F 94% 30.09 in 4.0 mi NNW 11.5 mph - N/A Rain Light Rain
2:05 AM 48.2 °F - 46.4 °F 93% 30.11 in 8.0 mi NNW 13.8 mph 23.0 mph N/A Thunderstorm Overcast
2:25 AM 48.2 °F - 46.4 °F 93% 30.10 in 10.0 mi North 9.2 mph - N/A Thunderstorm Overcast
2:45 AM 50.0 °F - 46.4 °F 87% 30.11 in 10.0 mi NNW 10.4 mph - N/A   Overcast
3:05 AM 48.2 °F - 46.4 °F 93% 30.10 in 7.0 mi North 8.1 mph - N/A Rain , Thunderstorm Light Rain
3:25 AM 48.2 °F - 46.4 °F 93% 30.12 in 10.0 mi North 8.1 mph - 0.01 in Rain , Thunderstorm Light Thunderstorms and Rain
3:45 AM 48.2 °F - 46.4 °F 93% 30.10 in 10.0 mi NNE 10.4 mph - 0.01 in Thunderstorm Thunderstorm
4:25 AM 48.2 °F - 46.4 °F 93% 30.11 in 10.0 mi North 5.8 mph - N/A   Overcast
4:45 AM 48.2 °F - 44.6 °F 87% 30.10 in 10.0 mi North 9.2 mph - N/A   Overcast
5:25 AM 48.2 °F - 44.6 °F 87% 30.13 in 10.0 mi North 11.5 mph 17.3 mph N/A   Overcast
5:45 AM 48.2 °F - 44.6 °F 87% 30.13 in 10.0 mi NNE 12.7 mph - N/A   Overcast
6:05 AM 48.2 °F - 44.6 °F 87% 30.14 in 10.0 mi NNE 12.7 mph 16.1 mph N/A   Overcast
6:45 AM 46.4 °F 40.7 °F 41.0 °F 81% 30.16 in 10.0 mi North 12.7 mph 19.6 mph N/A   Overcast
7:05 AM 46.4 °F 41.1 °F 41.0 °F 81% 30.16 in 10.0 mi North 11.5 mph 17.3 mph N/A   Overcast
7:25 AM 46.4 °F 40.7 °F 41.0 °F 81% 30.17 in 10.0 mi North 12.7 mph 17.3 mph N/A   Overcast
7:45 AM 46.4 °F 40.7 °F 41.0 °F 81% 30.17 in 10.0 mi NNE 12.7 mph 18.4 mph N/A   Overcast
8:05 AM 46.4 °F 41.5 °F 41.0 °F 81% 30.18 in 10.0 mi NNE 10.4 mph - N/A   Overcast
8:25 AM 46.4 °F 40.7 °F 41.0 °F 81% 30.18 in 10.0 mi North 12.7 mph - N/A   Overcast
8:45 AM 48.2 °F - 41.0 °F 76% 30.19 in 10.0 mi NNE 11.5 mph - N/A   Overcast
9:05 AM 48.2 °F - 41.0 °F 76% 30.18 in 10.0 mi NNE 13.8 mph 17.3 mph N/A   Overcast
9:25 AM 48.2 °F - 41.0 °F 76% 30.18 in 10.0 mi NNE 16.1 mph 20.7 mph N/A   Overcast
9:45 AM 48.2 °F - 41.0 °F 76% 30.18 in 10.0 mi North 10.4 mph - N/A   Overcast
10:25 AM 48.2 °F - 41.0 °F 76% 30.18 in 10.0 mi NNE 9.2 mph 19.6 mph N/A   Overcast
10:45 AM 51.8 °F - 41.0 °F 67% 30.17 in 10.0 mi NE 12.7 mph - N/A   Mostly Cloudy
11:05 AM 53.6 °F - 41.0 °F 62% 30.17 in 10.0 mi NNE 6.9 mph - N/A   Mostly Cloudy
11:25 AM 55.4 °F - 41.0 °F 58% 30.16 in 10.0 mi NE 12.7 mph - N/A   Scattered Clouds
11:45 AM 57.2 °F - 42.8 °F 59% 30.15 in 10.0 mi NNE 10.4 mph - N/A   Partly Cloudy
12:05 PM 57.2 °F - 41.0 °F 55% 30.13 in 10.0 mi NNE 10.4 mph 16.1 mph N/A   Clear
12:25 PM 59.0 °F - 41.0 °F 51% 30.12 in 10.0 mi NE 10.4 mph - N/A   Clear
12:45 PM 59.0 °F - 41.0 °F 51% 30.11 in 10.0 mi NE 11.5 mph 18.4 mph N/A   Clear
1:05 PM 60.8 °F - 41.0 °F 48% 30.11 in 10.0 mi NNE 6.9 mph - N/A   Clear
1:25 PM 62.6 °F - 39.2 °F 42% 30.12 in 10.0 mi NNE 9.2 mph 18.4 mph N/A   Clear
1:45 PM 62.6 °F - 41.0 °F 45% 30.11 in 10.0 mi North 10.4 mph - N/A   Clear
2:05 PM 62.6 °F - 39.2 °F 42% 30.11 in 10.0 mi NW 10.4 mph - N/A   Scattered Clouds
2:25 PM 60.8 °F - 39.2 °F 45% 30.11 in 10.0 mi NNW 8.1 mph - N/A   Mostly Cloudy
2:45 PM 59.0 °F - 39.2 °F 48% 30.12 in 10.0 mi NNW 8.1 mph - N/A   Overcast
3:05 PM 59.0 °F - 39.2 °F 48% 30.12 in 10.0 mi NNW 10.4 mph - N/A   Overcast
3:25 PM 57.2 °F - 39.2 °F 51% 30.11 in 10.0 mi North 8.1 mph - N/A   Mostly Cloudy
3:45 PM 55.4 °F - 41.0 °F 58% 30.09 in 10.0 mi North 8.1 mph - N/A Rain Light Rain
4:05 PM 53.6 °F - 44.6 °F 72% 30.06 in 6.0 mi NNE 8.1 mph - 0.01 in Rain Light Rain
4:25 PM 53.6 °F - 44.6 °F 72% 30.10 in 10.0 mi West 6.9 mph - 0.02 in Rain Light Rain
4:45 PM 53.6 °F - 46.4 °F 77% 30.10 in 10.0 mi NNW 6.9 mph - 0.02 in   Mostly Cloudy
5:05 PM 53.6 °F - 44.6 °F 72% 30.09 in 10.0 mi NNW 5.8 mph - N/A Rain , Thunderstorm Light Rain
5:25 PM 53.6 °F - 44.6 °F 72% 30.15 in 10.0 mi WNW 11.5 mph - N/A   Overcast
5:45 PM 51.8 °F - 44.6 °F 76% 30.11 in 6.0 mi North 8.1 mph - N/A Rain Light Rain
6:05 PM 50.0 °F - 44.6 °F 82% 30.11 in 9.0 mi North 5.8 mph - N/A Rain Light Rain
6:25 PM 50.0 °F - 46.4 °F 87% 30.12 in 9.0 mi North 4.6 mph - 0.01 in   Overcast
6:45 PM 50.0 °F - 44.6 °F 82% 30.13 in 10.0 mi NNW 6.9 mph - 0.01 in Rain Light Rain
7:05 PM 50.0 °F - 44.6 °F 82% 30.12 in 10.0 mi North 4.6 mph - N/A Rain , Thunderstorm Light Rain
7:25 PM 50.0 °F - 46.4 °F 87% 30.16 in 5.0 mi NNW 6.9 mph - 0.02 in Rain Heavy Rain
7:45 PM 48.2 °F - 44.6 °F 87% 30.14 in 9.0 mi North 10.4 mph - 0.02 in Rain Light Rain
8:05 PM 48.2 °F - 44.6 °F 87% 30.15 in 10.0 mi North 5.8 mph - N/A   Overcast
8:25 PM 48.2 °F - 44.6 °F 87% 30.17 in 8.0 mi North 4.6 mph - 0.01 in Rain Light Rain
8:45 PM 48.2 °F - 44.6 °F 87% 30.17 in 10.0 mi NNW 4.6 mph - 0.01 in   Overcast
9:05 PM 48.2 °F - 44.6 °F 87% 30.15 in 10.0 mi NNE 4.6 mph - N/A   Overcast
9:25 PM 48.2 °F - 44.6 °F 87% 30.16 in 10.0 mi North 10.4 mph 18.4 mph N/A   Overcast
9:45 PM 46.4 °F 40.1 °F 42.8 °F 87% 30.17 in 10.0 mi NNE 15.0 mph - N/A Rain Light Rain
10:05 PM 46.4 °F 41.9 °F 42.8 °F 87% 30.17 in 7.0 mi North 9.2 mph 16.1 mph N/A Rain Light Rain
10:25 PM 46.4 °F 42.9 °F 42.8 °F 87% 30.18 in 10.0 mi North 6.9 mph - N/A Rain Light Rain
10:45 PM 46.4 °F 43.5 °F 42.8 °F 87% 30.19 in 4.0 mi North 5.8 mph - 0.04 in Rain Light Rain
11:05 PM 46.4 °F 43.5 °F 41.0 °F 81% 30.19 in 3.0 mi NNW 5.8 mph - 0.02 in Rain Heavy Rain
11:45 PM 44.6 °F 42.2 °F 42.8 °F 93% 30.18 in 8.0 mi NNW 4.6 mph - 0.10 in Rain Light Rain